Weather History for Louisburg, NC

Change the Weather History Date:

Sunday, September 8, 2013

  Actual Average (KRDU) Record (KRDU)
Temperature  
Mean Temperature 76 °F 74 °F  
Max Temperature 89 °F 85 °F 99 °F (1941)
Min Temperature 64 °F 65 °F 49 °F (1984)
Degree Days  
Heating Degree Days 0 0  
Month to date heating degree days 0  
Since 1 July heating degree days 1  
Cooling Degree Days 12 10  
Month to date cooling degree days 84  
Year to date cooling degree days 1525  
Growing Degree Days 26 (Base 50)    
Moisture  
Dew Point 64 °F    
Average Humidity 70    
Maximum Humidity 94    
Minimum Humidity 29    
Precipitation  
Precipitation 0.00 in 0.15 in 2.60 in (1977)
Month to date precipitation 1.26  
Year to date precipitation 30.80  
Sea Level Pressure  
Sea Level Pressure 29.96 in    
Wind  
Wind Speed 1 mph (West)    
Max Wind Speed 5 mph    
Max Gust Speed -    
Visibility 9 miles    
Events      
T = Trace of Precipitation, MM = Missing Value Source: NWS Daily Summary

Daily Weather History Graph

Daily Weather History Graph

Search for Another Location

Airport:

Trip Planner

Search our weather history database for the weather conditions in past years. The results will help you decide how hot, cold, wet, or windy it might be!

Date:

Astronomy

Sep. 08, 2013 Rise Set
Actual Time 6:50 AM EDT 7:30 PM EDT
Civil Twilight 6:24 AM EDT 7:56 PM EDT
Nautical Twilight 5:54 AM EDT 8:26 PM EDT
Astronomical Twilight 5:22 AM EDT 8:58 PM EDT
Moon 9:58 AM EDT (9/8) 9:13 PM EDT (9/8)
Length of Visible Light 13h 31m
Length of Day
12h 39m
Waxing Crescent, 11% of the Moon is Illuminated
Sep 8
Waxing Crescent
Sep 12
First Quarter
Sep 19
Full
Sep 26
Last Quarter
Oct 4
New

Hourly Weather History & Observations

Time (EDT) Temp. Heat Index Dew Point Humidity Pressure Visibility Wind Dir Wind Speed Gust Speed Precip Events Conditions
12:15 AM 68.0 °F - 62.6 °F 83% 30.00 in 10.0 mi Calm Calm - N/A   Clear
12:35 AM 68.0 °F - 62.6 °F 83% 30.00 in 10.0 mi South 3.5 mph - N/A   Clear
12:55 AM 68.0 °F - 62.6 °F 83% 30.00 in 10.0 mi South 3.5 mph - N/A   Clear
1:15 AM 69.8 °F - 62.6 °F 78% 30.00 in 10.0 mi South 3.5 mph - N/A   Clear
1:35 AM 69.8 °F - 62.6 °F 78% 29.99 in 10.0 mi South 3.5 mph - N/A   Clear
1:55 AM 69.8 °F - 62.6 °F 78% 29.99 in 10.0 mi South 4.6 mph - N/A   Clear
2:15 AM 69.8 °F - 62.6 °F 78% 29.99 in 10.0 mi South 3.5 mph - N/A   Clear
2:35 AM 68.0 °F - 62.6 °F 83% 29.98 in 10.0 mi Calm Calm - N/A   Clear
2:55 AM 69.8 °F - 62.6 °F 78% 29.98 in 10.0 mi South 3.5 mph - N/A   Scattered Clouds
3:15 AM 69.8 °F - 62.6 °F 78% 29.97 in 10.0 mi South 3.5 mph - N/A   Overcast
3:35 AM 69.8 °F - 62.6 °F 78% 29.97 in 10.0 mi Calm Calm - N/A   Overcast
3:55 AM 69.8 °F - 62.6 °F 78% 29.97 in 10.0 mi Calm Calm - N/A   Mostly Cloudy
4:15 AM 68.0 °F - 62.6 °F 83% 29.97 in 10.0 mi South 3.5 mph - N/A   Mostly Cloudy
4:35 AM 68.0 °F - 62.6 °F 83% 29.96 in 10.0 mi Calm Calm - N/A   Scattered Clouds
4:55 AM 66.2 °F - 62.6 °F 88% 29.96 in 7.0 mi Calm Calm - N/A   Clear
5:15 AM 66.2 °F - 62.6 °F 88% 29.95 in 7.0 mi Calm Calm - N/A   Clear
5:35 AM 66.2 °F - 62.6 °F 88% 29.96 in 7.0 mi Calm Calm - N/A   Clear
5:55 AM 66.2 °F - 62.6 °F 88% 29.96 in 7.0 mi Calm Calm - N/A   Clear
6:15 AM 66.2 °F - 62.6 °F 88% 29.96 in 7.0 mi Calm Calm - N/A   Clear
6:35 AM 64.4 °F - 60.8 °F 88% 29.97 in 7.0 mi Calm Calm - N/A   Clear
6:55 AM 64.4 °F - 60.8 °F 88% 29.97 in 5.0 mi Calm Calm - N/A   Clear
7:15 AM 64.4 °F - 60.8 °F 88% 29.96 in 5.0 mi Calm Calm - N/A   Clear
7:35 AM 64.4 °F - 62.6 °F 94% 29.96 in 7.0 mi Calm Calm - N/A   Clear
7:55 AM 68.0 °F - 62.6 °F 83% 29.96 in 7.0 mi Calm Calm - N/A   Clear
8:15 AM 69.8 °F - 62.6 °F 78% 29.96 in 7.0 mi Calm Calm - N/A   Clear
8:35 AM 71.6 °F - 64.4 °F 78% 29.96 in 10.0 mi Calm Calm - N/A   Clear
8:55 AM 73.4 °F - 64.4 °F 73% 29.96 in 10.0 mi Calm Calm - N/A   Clear
9:15 AM 77.0 °F - 66.2 °F 69% 29.97 in 10.0 mi Calm Calm - N/A   Clear
9:35 AM 77.0 °F - 64.4 °F 65% 29.97 in 10.0 mi North 3.5 mph - N/A   Clear
9:55 AM 78.8 °F - 64.4 °F 61% 29.97 in 7.0 mi North 4.6 mph - N/A   Clear
10:15 AM 78.8 °F - 62.6 °F 57% 29.97 in 10.0 mi North 4.6 mph - N/A   Clear
10:35 AM 80.6 °F 82.3 °F 64.4 °F 58% 29.97 in 10.0 mi North 3.5 mph - N/A   Clear
10:55 AM 80.6 °F 81.8 °F 62.6 °F 54% 29.97 in 10.0 mi Calm Calm - N/A   Clear
11:15 AM 80.6 °F 81.5 °F 60.8 °F 51% 29.97 in 10.0 mi Calm Calm - N/A   Clear
11:35 AM 82.4 °F 82.9 °F 60.8 °F 48% 29.97 in 10.0 mi NNE 3.5 mph - N/A   Clear
11:55 AM 84.2 °F 84.4 °F 60.8 °F 45% 29.97 in 10.0 mi NNE 3.5 mph - N/A   Clear
12:15 PM 86.0 °F 86.6 °F 62.6 °F 45% 29.97 in 10.0 mi NNE 3.5 mph - N/A   Clear
12:35 PM 86.0 °F 86.6 °F 62.6 °F 45% 29.95 in 10.0 mi North 3.5 mph - N/A   Clear
12:55 PM 86.0 °F 86.1 °F 60.8 °F 43% 29.95 in 10.0 mi Calm Calm - N/A   Clear
1:15 PM 86.0 °F 86.1 °F 60.8 °F 43% 29.95 in 10.0 mi NW 3.5 mph - N/A   Clear
1:35 PM 87.8 °F 87.6 °F 60.8 °F 40% 29.95 in 10.0 mi West 3.5 mph - N/A   Clear
1:55 PM 87.8 °F 87.6 °F 60.8 °F 40% 29.94 in 10.0 mi Calm Calm - N/A   Clear
2:15 PM 87.8 °F 87.6 °F 60.8 °F 40% 29.94 in 10.0 mi Calm Calm - N/A   Clear
2:35 PM 87.8 °F 87.6 °F 60.8 °F 40% 29.94 in 10.0 mi Calm Calm - N/A   Clear
2:55 PM 89.6 °F 88.9 °F 59.0 °F 36% 29.93 in 10.0 mi Calm Calm - N/A   Clear
3:15 PM 89.6 °F 87.3 °F 53.6 °F 29% 29.93 in 10.0 mi Calm Calm - N/A   Clear
3:35 PM 89.6 °F 88.9 °F 59.0 °F 36% 29.93 in 10.0 mi West 3.5 mph - N/A   Clear
3:55 PM 89.6 °F 88.9 °F 59.0 °F 36% 29.93 in 10.0 mi Calm Calm - N/A   Clear
4:15 PM 89.6 °F 88.1 °F 57.2 °F 33% 29.93 in 10.0 mi Calm Calm - N/A   Clear
4:35 PM 87.8 °F 86.1 °F 55.4 °F 33% 29.93 in 10.0 mi Calm Calm - N/A   Clear
4:55 PM 89.6 °F 88.1 °F 57.2 °F 33% 29.93 in 10.0 mi Calm Calm - N/A   Clear
5:15 PM 87.8 °F 90.4 °F 66.2 °F 49% 29.93 in 10.0 mi Calm Calm - N/A   Clear
5:35 PM 82.4 °F 86.3 °F 69.8 °F 66% 29.93 in 10.0 mi Calm Calm - N/A   Clear
5:55 PM 84.2 °F 87.3 °F 68.0 °F 58% 29.93 in 10.0 mi Calm Calm - N/A   Clear
6:15 PM 80.6 °F 83.9 °F 69.8 °F 70% 29.93 in 10.0 mi Calm Calm - N/A   Clear
6:35 PM 78.8 °F - 71.6 °F 78% 29.93 in 10.0 mi Calm Calm - N/A   Clear
6:55 PM 77.0 °F - 69.8 °F 78% 29.94 in 10.0 mi Calm Calm - N/A   Clear
7:15 PM 77.0 °F - 69.8 °F 78% 29.94 in 10.0 mi Calm Calm - N/A   Clear
7:35 PM 75.2 °F - 69.8 °F 83% 29.95 in 10.0 mi Calm Calm - N/A   Clear
7:55 PM 73.4 °F - 69.8 °F 88% 29.95 in 10.0 mi Calm Calm - N/A   Clear
8:15 PM 73.4 °F - 68.0 °F 83% 29.96 in 10.0 mi Calm Calm - N/A   Clear
8:35 PM 71.6 °F - 68.0 °F 88% 29.96 in 10.0 mi Calm Calm - N/A   Clear
8:55 PM 71.6 °F - 68.0 °F 88% 29.97 in 10.0 mi Calm Calm - N/A   Clear
9:15 PM 71.6 °F - 68.0 °F 88% 29.97 in 10.0 mi Calm Calm - N/A   Clear
9:35 PM 71.6 °F - 68.0 °F 88% 29.98 in 10.0 mi Calm Calm - N/A   Clear
9:55 PM 71.6 °F - 68.0 °F 88% 29.99 in 7.0 mi Calm Calm - N/A   Clear
10:15 PM 71.6 °F - 68.0 °F 88% 30.00 in 7.0 mi Calm Calm - N/A   Clear
10:35 PM 69.8 °F - 66.2 °F 88% 30.00 in 7.0 mi Calm Calm - N/A   Clear
10:55 PM 69.8 °F - 66.2 °F 88% 30.00 in 7.0 mi Calm Calm - N/A   Clear
11:15 PM 69.8 °F - 66.2 °F 88% 30.00 in 7.0 mi Calm Calm - N/A   Clear
11:35 PM 69.8 °F - 66.2 °F 88% 30.00 in 7.0 mi Calm Calm - N/A   Clear
11:55 PM 69.8 °F - 66.2 °F 88% 30.01 in 7.0 mi Calm Calm - N/A   Clear